[[{"header":{"parameterUnit":"m.s-1","parameterCategory":1,"la1":30.2991,"la2":30.254,"lo1":-89.0895,"lo2":-89.0444,"dy":0.0017,"dx":0.0017,"nx":28,"ny":28,"refTime":"2023-09-29T09:00:00:Z","depth":0,"parameterNumber":2,"parameterNumberName":"U-component_of_WINDS"},"data":[0,0,0,0,0,0,0,0,0,0,0,0,0,0,0,0,0,0,0,0,0,0,0,0,0,0,0,0,0,0,0,0,0,0,0,0,0,0,0,0,0,0,0,0,0,0,0,0,0,0,0,0,0,0,0,0,0,0,-4.1833,-4.1833,0,-4.1858,-4.1859,-4.1859,-4.1747,-4.1744,-4.174,-4.1737,-4.1768,-4.1772,-4.1776,0,0,0,0,0,0,0,0,0,0,0,0,0,-4.169,-4.1694,-4.1833,-4.1833,-4.1833,-4.1858,-4.1859,-4.1859,-4.1747,-4.1743,-4.1739,-4.1736,-4.1767,-4.1771,-4.1776,0,0,0,0,0,0,0,0,0,0,0,0,0,-4.1738,-4.1695,-4.1832,-4.178,-4.1776,-4.1858,-4.1859,-4.1859,-4.1748,-4.1743,-4.1738,-4.1734,-4.1765,-4.1771,-4.1777,-4.1912,0,0,-4.1794,-4.1797,0,0,0,0,0,0,0,0,-4.1736,-4.1743,-4.1788,-4.1784,-4.1779,-4.1794,-4.182,-4.1877,-4.1749,-4.1759,-4.1737,-4.1731,-4.1781,-4.1785,-4.1801,-4.1913,-4.1914,-4.1795,-4.1798,-4.1801,-4.1803,0,0,0,0,0,0,0,-4.1732,-4.1742,-4.1843,-4.1789,-4.1783,-4.1757,-4.1758,-4.183,-4.1798,-4.1758,-4.175,-4.1754,-4.1778,-4.1796,-4.1801,-4.1915,-4.1795,-4.18,-4.1804,-4.1806,-4.2141,-4.2146,0,0,0,0,0,0,-4.1735,-4.174,-4.1842,-4.1844,-4.1745,-4.1764,-4.1765,-4.1795,-4.1796,-4.1792,-4.1758,-4.1749,-4.1788,-4.1794,-4.1802,-4.1961,-4.1801,-4.1806,-4.181,-4.2135,-4.2142,-4.2148,0,0,0,0,0,0,-4.1733,-4.1746,-4.1841,-4.1789,-4.18,-4.1771,-4.1805,-4.1798,-4.1815,-4.1797,-4.1791,-4.1782,-4.1784,-4.1793,-4.1885,-4.1961,-4.1809,-4.1814,-4.2129,-4.2137,-4.2145,-4.2281,0,0,0,0,0,0,-4.1729,-4.1745,-4.1795,-4.1791,-4.1803,-4.1923,-4.181,-4.1802,-4.1825,-4.1813,-4.1818,-4.1814,-4.1781,-4.1877,-4.1891,-4.1966,-4.1819,-4.2122,-4.2133,-4.2142,-4.227,-4.2293,-4.2312,0,0,0,0,0,-4.1724,-4.1833,-4.1798,-4.1811,-4.1864,-4.1928,-4.1934,-4.1894,-4.1832,-4.1883,-4.1871,-4.1814,-4.195,-4.1887,-4.1902,-4.198,-4.2117,-4.213,-4.2141,-4.226,-4.2288,-4.2312,0,0,0,0,0,0,-4.1848,-4.1832,-4.1793,-4.1903,-4.1918,-4.1909,-4.1971,-4.1924,-4.1958,-4.1945,-4.1894,-4.1896,-4.1998,-4.1997,-4.1928,-4.2112,-4.2023,-4.2039,-4.2108,-4.2135,-4.2156,-4.2155,-4.1824,0,0,0,0,0,-4.1888,-4.1939,-4.1923,-4.2022,-4.2031,-4.2,-4.2026,-4.1993,-4.2007,-4.2013,-4.2007,-4.2024,-4.207,-4.2102,-4.2144,-4.2268,-4.2269,-4.2329,-4.2351,-4.2368,-4.2383,-4.2451,-4.2478,-4.2188,-4.2187,-4.2187,0,0,-4.1971,-4.1969,-4.2004,-4.2047,-4.2054,-4.211,-4.2006,-4.2069,-4.2111,-4.2023,-4.2109,-4.2106,-4.2121,-4.2231,-4.2278,-4.2234,-4.2464,-4.2384,-4.2398,-4.2403,-4.2467,-4.2494,-4.2519,-4.2196,-4.2194,-4.2193,0,0,-4.2152,-4.2154,-4.2238,-4.2247,-4.2259,-4.2238,-4.2258,-4.2257,-4.2251,-4.2336,-4.2272,-4.2321,-4.2402,-4.2415,-4.2433,-4.262,-4.257,-4.2635,-4.2748,-4.2814,-4.2837,-4.2857,-4.2926,-4.2951,-4.2649,-4.265,-4.265,0,-4.2255,-4.2335,-4.2287,-4.2355,-4.2377,-4.2298,-4.2383,-4.2395,-4.242,-4.2438,-4.2386,-4.2487,-4.2491,-4.2604,-4.2649,-4.2665,-4.2689,-4.2635,-4.2838,-4.2857,-4.2875,-4.2941,-4.2966,-4.2658,-4.2657,-4.2656,-4.2655,0,-4.2462,-4.2519,-4.2585,-4.2611,-4.2639,-4.2716,-4.2681,-4.2716,-4.2681,-4.2666,-4.2755,-4.2757,-4.2799,-4.2822,-4.2789,-4.2931,-4.2903,-4.2846,-4.2756,-4.2912,-4.2972,-4.2997,-4.2669,-4.2666,-4.2664,-4.2662,0,0,-4.2722,-4.272,-4.2746,-4.2757,-4.2764,-4.2808,-4.2882,-4.2921,-4.2953,-4.2973,-4.3035,-4.3105,-4.3052,-4.3073,-4.304,-4.3099,-4.3249,-4.3034,-4.3034,-4.3076,-4.3408,-4.3453,-4.3482,-4.3215,-4.3219,-4.3223,-4.3407,0,-4.2901,-4.3025,-4.2984,-4.3111,-4.3164,-4.309,-4.3155,-4.3167,-4.3155,-4.32,-4.3187,-4.3238,-4.3163,-4.3175,-4.323,-4.3219,-4.3315,-4.3205,-4.3274,-4.3277,-4.3275,-4.3513,-4.356,-4.3735,-4.343,-4.3434,-4.3437,0,-4.3126,-4.3155,-4.3287,-4.3286,-4.3307,-4.3365,-4.3399,-4.3441,-4.3455,-4.3442,-4.3465,-4.3421,-4.3495,-4.3403,-4.3506,-4.3432,-4.3457,-4.3457,-4.3462,-4.3469,-4.3368,-4.3529,-4.3789,-4.3816,-4.3474,-4.3471,-4.3468,0,-4.3306,-4.3377,-4.3465,-4.3477,-4.3478,-4.3521,-4.3524,-4.3532,-4.3559,-4.3588,-4.3606,-4.3644,-4.3666,-4.3697,-4.3665,-4.3601,-4.3774,-4.3679,-4.3767,-4.3768,-4.3808,-4.3807,-4.4079,-4.3822,-4.3821,-4.3821,-4.382,0,-4.3511,-4.3595,-4.3546,-4.3601,-4.3694,-4.3646,-4.374,-4.3734,-4.3743,-4.3796,-4.3734,-4.3787,-4.374,-4.3788,-4.3764,-4.3854,-4.3863,-4.3857,-4.385,-4.3864,-4.3865,-4.3881,-4.3869,-4.3828,-4.3826,-4.3825,-4.3824,0,-4.3727,-4.3698,-4.379,-4.3783,-4.3783,-4.3852,-4.3847,-4.3899,-4.3882,-4.3951,-4.3964,-4.3939,-4.3993,-4.3963,-4.4019,-4.4002,-4.412,-4.4095,-4.4115,-4.411,-4.42,-4.4193,-4.4494,-4.4533,-4.4249,-4.4252,-4.4254,0,-4.3861,-4.3924,-4.3924,-4.3955,-4.3962,-4.4012,-4.4039,-4.3995,-4.4026,-4.4046,-4.4096,-4.4144,-4.418,-4.4271,-4.4258,-4.4301,-4.4279,-4.4381,-4.4285,-4.4297,-4.4283,-4.428,-4.4288,-4.4401,-4.4405,-4.4407,-4.441,0,-4.4103,-4.4085,-4.4125,-4.4161,-4.4194,-4.4221,-4.4242,-4.4271,-4.4228,-4.4266,-4.432,-4.4348,-4.4404,-4.4454,-4.4491,-4.4495,-4.4447,-4.444,-4.4463,-4.4479,-4.4489,-4.4487,-4.4171,-4.4433,-4.4431,-4.4429,-4.4428,-4.4427,-4.4283,-4.4336,-4.4345,-4.4392,-4.4404,-4.4425,-4.4473,-4.4463,-4.4506,-4.4548,-4.452,-4.4584,-4.4597,-4.4641,-4.4652,-4.4703,-4.4662,-4.4695,-4.4704,-4.4713,-4.4727,-4.4479,-4.4709,-4.4709,-4.4708,-4.4707,-4.4707,0,-4.4523,-4.4525,-4.4569,-4.4601,-4.4639,-4.4587,-4.4608,-4.4644,-4.4701,-4.4716,-4.4753,-4.4816,-4.4864,-4.4855,-4.4899,-4.4942,-4.4921,-4.4955,-4.4953,-4.4955,-4.4759,-4.4736,-4.4972,-4.4972,-4.4972,-4.4972,-4.4971,-4.4971,-4.4653,-4.4741,-4.4724,-4.4818,-4.4819,-4.488,-4.4897,-4.4918,-4.493,-4.5003,-4.5042,-4.5035,-4.5042,-4.5086,-4.5128,-4.5125,-4.5145,-4.5188,-4.5177,-4.4995,-4.4969,-4.4944,-4.4922,-4.5192,-4.5193,-4.5369,-4.537,-4.5371]},{"header":{"parameterUnit":"m.s-1","parameterCategory":1,"la1":30.2991,"la2":30.254,"lo1":-89.0895,"lo2":-89.0444,"dy":0.0017,"dx":0.0017,"nx":28,"ny":28,"refTime":"2023-09-29T09:00:00:Z","depth":0,"parameterNumber":3,"parameterNumberName":"V-component_of_WINDS"},"data":[0,0,0,0,0,0,0,0,0,0,0,0,0,0,0,0,0,0,0,0,0,0,0,0,0,0,0,0,0,0,0,0,0,0,0,0,0,0,0,0,0,0,0,0,0,0,0,0,0,0,0,0,0,0,0,0,0,0,-2.8131,-2.813,0,-2.8054,-2.8053,-2.8052,-2.7981,-2.798,-2.7979,-2.7979,-2.7897,-2.7896,-2.7895,0,0,0,0,0,0,0,0,0,0,0,0,0,-2.8213,-2.8212,-2.8131,-2.813,-2.8129,-2.8054,-2.8053,-2.8052,-2.7981,-2.798,-2.7979,-2.7978,-2.7898,-2.7896,-2.7895,0,0,0,0,0,0,0,0,0,0,0,0,0,-2.8161,-2.8212,-2.8131,-2.8085,-2.808,-2.8054,-2.8053,-2.8052,-2.7982,-2.798,-2.7979,-2.7978,-2.7898,-2.7896,-2.7894,-2.7908,0,0,-2.7888,-2.7887,0,0,0,0,0,0,0,0,-2.8164,-2.8158,-2.8092,-2.8088,-2.8082,-2.8026,-2.8052,-2.8003,-2.7982,-2.8019,-2.7979,-2.7977,-2.7941,-2.7935,-2.7924,-2.7904,-2.79,-2.7888,-2.7887,-2.7886,-2.7885,0,0,0,0,0,0,0,-2.8168,-2.8161,-2.81,-2.8092,-2.8085,-2.8067,-2.8058,-2.8043,-2.7988,-2.8015,-2.801,-2.8002,-2.7938,-2.7926,-2.7921,-2.7899,-2.7888,-2.7886,-2.7885,-2.7884,-2.7886,-2.7887,0,0,0,0,0,0,-2.8179,-2.8164,-2.8103,-2.8098,-2.8121,-2.8066,-2.8056,-2.8045,-2.7988,-2.7978,-2.8003,-2.7999,-2.793,-2.7924,-2.7918,-2.793,-2.7886,-2.7884,-2.7883,-2.7884,-2.7886,-2.7887,0,0,0,0,0,0,-2.8181,-2.8174,-2.8106,-2.813,-2.812,-2.8066,-2.8054,-2.8044,-2.8032,-2.7979,-2.7968,-2.8001,-2.7929,-2.7921,-2.7911,-2.7926,-2.7883,-2.7881,-2.7883,-2.7885,-2.7887,-2.7954,0,0,0,0,0,0,-2.8184,-2.8175,-2.8181,-2.813,-2.8119,-2.8101,-2.8055,-2.8044,-2.8029,-2.8023,-2.7974,-2.7965,-2.7927,-2.7914,-2.7909,-2.7922,-2.788,-2.7881,-2.7884,-2.7886,-2.795,-2.7958,-2.7964,0,0,0,0,0,-2.8187,-2.8202,-2.8181,-2.8174,-2.8124,-2.8102,-2.8095,-2.8052,-2.8031,-2.8035,-2.8001,-2.7966,-2.7925,-2.7914,-2.7907,-2.792,-2.788,-2.7883,-2.7886,-2.7947,-2.7956,-2.7964,0,0,0,0,0,0,-2.8254,-2.8195,-2.8171,-2.8171,-2.8142,-2.809,-2.8095,-2.8064,-2.804,-2.8035,-2.7982,-2.7972,-2.7967,-2.7942,-2.7931,-2.793,-2.7898,-2.79,-2.7946,-2.7955,-2.7962,-2.7968,-2.7878,0,0,0,0,0,-2.827,-2.8257,-2.8205,-2.821,-2.8197,-2.8149,-2.8137,-2.8107,-2.8074,-2.8062,-2.8027,-2.7996,-2.7976,-2.7964,-2.7943,-2.7946,-2.7934,-2.7951,-2.7959,-2.7965,-2.7967,-2.7966,-2.7973,-2.7897,-2.7897,-2.7897,0,0,-2.83,-2.8266,-2.8261,-2.8223,-2.8197,-2.8185,-2.8139,-2.8128,-2.8118,-2.806,-2.8048,-2.8021,-2.7984,-2.798,-2.7977,-2.7959,-2.7985,-2.7968,-2.7974,-2.7972,-2.797,-2.7977,-2.7983,-2.7899,-2.7898,-2.7898,0,0,-2.835,-2.8323,-2.8324,-2.8299,-2.8261,-2.8229,-2.8229,-2.8182,-2.8162,-2.815,-2.8106,-2.8092,-2.8059,-2.8034,-2.8017,-2.8057,-2.8024,-2.8051,-2.8089,-2.8089,-2.8095,-2.81,-2.8114,-2.8119,-2.8053,-2.8054,-2.8054,0,-2.8393,-2.8373,-2.8328,-2.832,-2.8304,-2.8251,-2.8251,-2.8229,-2.8186,-2.8175,-2.8157,-2.8114,-2.8085,-2.8074,-2.8084,-2.8072,-2.807,-2.8057,-2.8098,-2.8102,-2.8106,-2.8119,-2.8124,-2.8057,-2.8057,-2.8056,-2.8056,0,-2.8428,-2.8415,-2.842,-2.838,-2.8365,-2.8361,-2.8314,-2.8303,-2.8274,-2.8243,-2.8231,-2.8194,-2.8164,-2.8159,-2.813,-2.8145,-2.8135,-2.8108,-2.8075,-2.8118,-2.8129,-2.8133,-2.8062,-2.8061,-2.806,-2.8059,0,0,-2.8518,-2.8454,-2.8456,-2.8438,-2.8391,-2.838,-2.8373,-2.8345,-2.8337,-2.8308,-2.8301,-2.8274,-2.8248,-2.8229,-2.8196,-2.8196,-2.8229,-2.8168,-2.8167,-2.8181,-2.8243,-2.8264,-2.827,-2.8207,-2.8208,-2.8209,-2.8246,0,-2.856,-2.8546,-2.8505,-2.8502,-2.849,-2.8439,-2.8433,-2.8404,-2.8375,-2.8359,-2.8326,-2.8308,-2.8275,-2.8263,-2.8261,-2.8226,-2.8241,-2.8223,-2.8199,-2.8199,-2.821,-2.8276,-2.8298,-2.8335,-2.825,-2.825,-2.8251,0,-2.8608,-2.8583,-2.858,-2.8535,-2.8527,-2.8523,-2.8493,-2.8479,-2.8444,-2.8423,-2.8401,-2.8365,-2.8354,-2.8323,-2.8307,-2.8295,-2.8283,-2.8264,-2.8264,-2.8261,-2.8228,-2.8274,-2.8345,-2.8351,-2.8257,-2.8257,-2.8256,0,-2.8674,-2.864,-2.8634,-2.8619,-2.8566,-2.8564,-2.8541,-2.8505,-2.8491,-2.8464,-2.8454,-2.8427,-2.8412,-2.8391,-2.8348,-2.833,-2.8336,-2.8302,-2.8317,-2.8318,-2.8321,-2.8321,-2.8392,-2.8313,-2.8313,-2.8313,-2.8313,0,-2.8725,-2.8725,-2.8663,-2.8659,-2.8658,-2.8609,-2.8609,-2.8581,-2.8549,-2.8538,-2.8493,-2.8483,-2.8427,-2.8411,-2.8377,-2.8368,-2.8362,-2.8344,-2.8335,-2.8348,-2.835,-2.8339,-2.8335,-2.8314,-2.8314,-2.8314,-2.8314,0,-2.8799,-2.8758,-2.8748,-2.8698,-2.8685,-2.8686,-2.8643,-2.8637,-2.8605,-2.8592,-2.8586,-2.8535,-2.8514,-2.8469,-2.8435,-2.8412,-2.8411,-2.8395,-2.8423,-2.8418,-2.8436,-2.8435,-2.8501,-2.8507,-2.8426,-2.8426,-2.8427,0,-2.8835,-2.8834,-2.8784,-2.8774,-2.8754,-2.8738,-2.8723,-2.8675,-2.8661,-2.8621,-2.862,-2.8595,-2.8572,-2.854,-2.85,-2.8473,-2.8456,-2.8481,-2.8452,-2.8465,-2.8456,-2.8457,-2.8456,-2.8488,-2.8489,-2.849,-2.8491,0,-2.8902,-2.8882,-2.8863,-2.8836,-2.882,-2.8797,-2.8771,-2.8765,-2.871,-2.8697,-2.8675,-2.8658,-2.8623,-2.8599,-2.8566,-2.8541,-2.8507,-2.8501,-2.8503,-2.8516,-2.8533,-2.8524,-2.8441,-2.8499,-2.8498,-2.8498,-2.8497,-2.8497,-2.8958,-2.8955,-2.8919,-2.8899,-2.8875,-2.8852,-2.8843,-2.8811,-2.8792,-2.8761,-2.8733,-2.8713,-2.8677,-2.863,-2.8608,-2.8591,-2.8574,-2.8577,-2.8578,-2.858,-2.8585,-2.8535,-2.8585,-2.8585,-2.8584,-2.8584,-2.8584,0,-2.9023,-2.8998,-2.898,-2.8946,-2.893,-2.8899,-2.8869,-2.8857,-2.8841,-2.8811,-2.879,-2.8764,-2.874,-2.8698,-2.867,-2.8665,-2.8648,-2.8659,-2.8659,-2.8653,-2.8602,-2.8603,-2.8673,-2.8673,-2.8673,-2.8673,-2.8673,-2.8673,-2.9055,-2.9048,-2.9023,-2.9003,-2.8977,-2.8958,-2.8943,-2.8921,-2.8897,-2.8871,-2.8851,-2.8824,-2.8788,-2.8758,-2.8734,-2.8722,-2.8714,-2.873,-2.8713,-2.8665,-2.8657,-2.8649,-2.865,-2.8728,-2.8728,-2.8765,-2.8766,-2.8766]}]]